Wind_Speed
14 14 14 14 15 14 12 13 13 13 12 12 12 12 12 12 12 11 11 10 9 8 8 8 8 8 8 8 9 10 11 12 12 12 11 12 12 12 12 12 12 11 11 10 10 10 9 9 9
14 14 14 14 15 12 13 13 13 13 13 13 13 13 13 12 12 11 11 10 9 8 8 8 8 8 8 8 9 10 11 11 11 11 11 12 12 12 12 12 11 11 10 10 10 9 9 8 8
14 14 14 15 14 13 13 14 14 14 14 14 14 14 13 12 12 11 11 9 9 9 8 8 8 8 8 8 9 10 11 11 11 11 10 11 11 11 11 11 11 10 10 10 9 9 8 7 6
14 14 14 14 13 13 14 14 14 14 14 14 14 14 13 12 12 12 11 9 9 9 9 10 9 9 8 8 8 9 9 10 11 11 10 10 10 10 10 11 10 10 10 9 9 8 7 6 6
14 14 16 14 14 14 14 14 14 14 14 14 14 13 13 13 12 12 11 10 9 9 10 10 9 8 8 8 9 8 9 9 10 10 10 10 10 10 9 10 10 9 9 8 8 7 7 6 6
14 15 16 14 14 14 14 14 14 14 14 14 13 13 13 12 12 11 11 10 10 10 9 9 9 8 8 8 8 7 8 8 9 9 9 9 10 10 10 9 9 8 8 7 7 7 7 6 6
13 15 14 13 13 14 14 14 14 14 14 14 14 13 12 12 11 11 10 11 11 11 9 9 9 9 8 8 8 7 8 8 7 8 8 8 8 9 9 9 8 7 7 7 7 7 6 6 6
12 14 13 12 12 12 13 13 14 14 14 14 14 13 12 12 11 11 10 10 11 10 9 9 9 8 8 8 8 7 7 7 6 6 7 7 8 8 8 8 7 7 6 7 7 6 6 6 5
11 12 10 11 11 11 11 12 13 13 13 14 13 13 12 11 11 11 10 10 10 9 8 8 8 7 7 7 7 7 7 6 5 5 5 6 7 7 8 8 7 6 6 6 6 6 6 6 5
11 11 9 10 11 11 10 11 11 12 13 12 12 12 11 10 11 11 10 9 9 9 8 7 7 7 6 6 6 5 5 5 5 4 5 5 6 8 8 8 8 7 6 5 5 5 5 5 5
10 10 9 9 10 10 10 10 10 11 11 11 11 11 10 10 10 10 10 9 8 8 8 7 7 6 6 6 5 5 4 4 4 4 4 5 6 7 8 8 7 7 6 5 5 5 5 4 4
9 9 9 9 9 9 9 9 9 9 9 10 10 10 10 10 10 9 9 9 8 8 8 7 6 6 6 6 6 5 4 3 4 4 5 5 6 7 7 7 6 6 6 6 5 5 4 4 4
9 8 8 8 7 7 7 7 7 8 8 8 9 9 10 9 9 9 8 8 8 8 7 7 7 7 7 6 5 5 4 4 3 4 4 5 5 5 6 6 6 5 5 6 5 5 4 4 3
7 8 7 6 6 5 6 6 6 7 7 7 8 9 9 8 8 7 7 8 8 7 7 7 7 7 7 7 6 5 4 4 3 3 4 4 4 4 5 5 5 4 4 5 5 5 5 5 5
5 6 5 4 4 4 4 5 5 5 5 5 5 6 7 7 7 6 6 6 7 7 6 6 6 6 6 6 6 5 4 4 3 4 3 3 3 3 3 3 4 4 4 4 4 5 5 5 5
3 3 3 2 2 2 3 4 4 4 4 4 4 4 5 5 5 5 5 6 6 6 6 5 5 5 5 5 5 5 4 4 4 4 4 3 3 3 3 2 3 3 4 4 4 4 5 5 6
3 3 3 3 2 1 1 2 1 1 2 2 3 3 2 3 2 2 3 4 4 4 4 4 4 4 4 3 4 4 4 3 3 3 3 2 2 2 2 2 2 3 4 4 4 5 5 6 7
7 6 6 5 4 2 2 2 2 2 2 2 2 1 1 1 1 1 1 2 2 3 3 4 3 3 3 3 3 3 3 3 2 2 2 1 0 1 2 2 3 3 4 4 5 6 7 7 7
10 8 8 8 7 6 6 5 5 4 3 2 2 2 2 3 3 2 2 2 2 2 2 3 3 2 2 2 2 2 2 2 2 1 1 1 0 1 1 1 2 3 4 5 6 7 8 9 9
11 10 10 10 10 9 9 8 7 6 5 3 3 3 4 5 5 4 4 4 4 3 3 3 2 2 2 2 1 0 1 1 2 1 1 1 1 1 2 2 3 4 5 5 6 7 8 9 9
12 12 12 12 11 11 11 10 10 8 7 6 6 6 6 6 7 6 6 6 5 5 4 4 3 3 3 2 2 1 1 2 2 2 2 2 2 2 3 4 4 5 5 5 7 7 8 8 9
14 14 14 14 13 12 12 12 12 11 9 8 9 9 8 9 9 9 8 7 6 6 5 4 4 4 3 3 2 2 2 3 3 3 3 4 4 3 4 5 5 5 6 7 8 8 9 9 9
16 16 17 16 16 15 15 14 13 13 12 10 10 10 10 10 10 10 10 9 8 7 7 7 5 5 4 4 4 3 4 4 4 4 4 4 4 5 5 5 5 6 7 8 8 9 9 10 10
18 18 18 17 17 18 17 16 15 14 13 13 12 11 12 11 11 11 11 11 10 9 8 8 7 7 7 6 5 5 5 5 5 5 5 6 6 6 6 7 7 7 8 8 9 9 10 10 11
20 19 19 19 19 19 19 19 17 16 15 15 14 14 14 13 13 13 13 13 12 11 10 10 9 9 9 8 8 7 6 6 6 6 6 7 7 7 7 8 8 8 9 9 9 10 11 11 12
22 22 21 21 20 20 21 20 18 18 17 16 16 16 16 16 16 15 15 14 14 13 13 12 11 12 12 12 11 10 9 9 8 8 8 8 8 9 9 9 10 10 11 11 11 11 12 12 13
24 24 23 24 24 22 22 22 19 18 17 17 17 17 17 17 17 17 16 16 16 15 14 14 13 14 15 14 13 13 13 12 11 10 10 10 10 10 10 11 12 12 12 13 13 14 14 14 15
25 24 24 24 25 24 23 23 21 19 19 19 19 19 19 19 19 18 17 17 18 17 16 16 16 17 17 17 16 15 15 14 14 13 12 12 12 13 13 13 14 14 15 14 15 16 16 16 17
25 25 25 26 26 25 24 22 23 21 19 19 20 21 21 21 20 20 19 19 19 19 18 18 18 18 18 18 17 16 17 17 16 15 15 15 15 15 15 15 16 16 17 17 17 18 18 18 18
25 25 25 26 27 27 26 23 24 23 21 21 21 22 22 22 22 22 22 21 21 21 21 21 20 20 19 19 19 18 18 18 18 17 17 17 17 18 18 18 18 19 19 19 20 20 20 20 21
Wind_Direction
88 89 90 89 85 82 86 87 86 82 80 80 82 84 84 91 92 91 94 98 103 105 113 116 119 119 116 119 122 125 125 127 128 125 125 127 128 130 129 130 130 128 128 128 130 136 135 133 132
86 87 89 87 84 84 87 87 87 84 83 83 84 85 84 88 89 88 91 98 101 103 113 111 113 114 117 120 122 124 126 127 129 130 132 132 131 131 131 131 132 133 134 133 131 135 136 135 135
84 85 87 86 86 89 90 89 87 85 82 82 83 84 82 81 83 83 85 92 95 97 104 107 108 107 114 119 122 124 127 130 131 133 136 137 136 135 136 135 134 136 138 137 136 134 132 131 132
84 85 86 85 87 90 90 91 88 84 81 80 79 80 77 76 78 80 80 84 88 97 101 99 106 104 106 111 120 125 129 133 135 136 136 138 141 142 142 140 137 136 137 138 138 137 136 135 135
85 86 82 83 88 90 90 89 88 84 80 78 77 77 78 77 78 80 79 80 82 97 101 96 99 102 102 106 117 122 127 131 136 140 140 141 143 143 143 143 141 138 137 138 138 137 138 138 133
87 86 86 88 88 90 89 87 84 82 80 77 76 78 80 77 74 75 75 77 84 91 94 95 101 103 104 109 117 118 121 127 135 141 142 141 144 147 147 146 144 142 141 142 142 140 138 139 136
89 92 90 92 89 89 89 87 84 82 80 77 75 75 78 80 78 75 74 74 81 83 86 91 93 94 97 106 112 112 118 123 132 141 144 145 148 148 147 147 148 149 148 145 145 147 145 149 148
91 92 90 94 94 91 89 88 86 83 80 78 75 72 74 79 79 76 75 77 79 80 81 83 87 88 93 98 103 107 114 118 125 137 146 150 152 157 159 157 155 156 158 154 154 158 155 156 159
90 90 94 98 98 95 93 90 87 84 81 78 74 72 73 74 75 76 77 79 78 77 80 79 81 85 93 97 99 105 108 112 119 131 147 160 167 168 168 164 158 155 155 156 156 158 163 162 162
92 97 102 101 98 95 92 91 89 84 79 75 73 71 70 73 76 78 80 77 73 75 77 75 77 80 85 92 97 108 108 108 113 125 137 152 157 162 166 164 165 165 164 162 166 166 167 171 167
91 98 101 101 97 94 90 90 91 84 78 73 71 68 69 73 77 77 77 75 74 76 73 73 74 76 79 88 90 99 104 105 108 114 125 132 145 153 157 163 170 176 173 173 172 169 172 178 181
93 97 100 103 97 92 89 87 85 83 75 73 70 70 70 74 78 78 75 73 70 73 72 72 72 72 74 81 81 84 92 107 119 121 126 131 137 144 152 160 166 170 179 182 175 173 183 187 201
100 99 101 102 100 89 86 84 81 77 72 69 67 71 73 72 75 78 76 72 71 71 68 68 71 75 79 77 77 76 83 97 107 118 130 135 142 144 153 164 171 174 181 186 190 192 198 213 227
107 106 106 103 96 90 90 85 80 76 73 68 65 68 73 71 73 74 74 72 69 67 66 65 72 73 74 73 75 80 84 93 117 124 129 135 139 142 145 161 174 185 194 200 207 211 220 229 240
124 114 107 107 100 91 87 79 80 74 73 67 65 64 66 74 72 67 65 65 63 58 64 71 76 71 69 71 72 78 82 88 105 120 130 141 147 153 159 167 184 200 213 216 221 227 236 241 250
150 133 124 134 116 98 83 72 78 71 67 62 61 69 68 70 69 61 60 59 56 51 54 65 69 68 65 67 67 67 74 84 95 112 123 138 151 168 182 191 202 216 223 225 230 239 247 252 260
199 209 208 217 183 147 93 66 32 52 47 46 48 66 78 59 59 55 46 47 47 43 40 48 58 53 53 59 64 63 64 75 93 114 121 121 149 193 211 224 228 232 233 240 250 259 256 260 264
228 230 232 235 235 236 255 299 312 327 345 339 336 357 6 357 351 342 12 18 18 15 18 18 37 42 39 48 59 60 60 65 91 127 140 121 159 241 236 246 252 252 250 255 260 266 264 264 267
226 231 239 243 246 254 259 271 286 294 315 329 306 281 287 308 307 295 291 309 323 337 337 346 10 21 22 28 39 52 46 51 68 104 167 179 219 310 280 270 278 272 266 269 267 268 268 267 271
234 239 248 252 253 258 263 270 281 286 288 291 286 279 278 291 295 289 290 298 307 318 314 321 337 347 345 346 354 35 9 4 5 326 267 268 294 291 284 294 291 287 285 280 279 277 276 273 273
240 246 250 254 259 261 265 272 275 274 276 276 277 279 278 287 287 288 298 302 297 299 309 314 319 330 335 337 327 339 311 309 321 340 317 299 302 283 278 290 297 297 302 301 297 293 289 286 280
246 249 252 254 259 262 264 268 268 266 267 271 274 273 274 280 283 282 285 289 288 284 288 295 300 307 314 311 303 296 295 305 312 320 335 337 332 322 308 301 306 306 306 305 301 300 297 290 284
249 252 255 256 259 261 262 263 264 263 262 266 270 270 269 272 275 276 277 276 277 281 282 280 286 285 290 293 294 295 292 295 297 298 311 319 315 315 314 310 309 305 303 302 300 300 300 296 292
251 256 260 260 262 264 263 261 263 260 260 263 264 266 268 270 271 270 270 271 273 276 277 278 279 276 274 279 282 281 283 288 294 287 293 303 307 311 308 309 308 309 305 303 302 300 298 298 295
252 256 261 263 265 268 266 262 262 259 258 261 262 264 264 266 267 267 266 268 270 271 269 270 275 274 271 271 268 267 270 275 282 287 296 300 300 304 304 306 308 305 304 302 301 299 296 295 294
254 254 255 258 263 269 269 265 264 261 260 260 260 262 263 262 264 266 267 265 265 265 267 268 273 271 270 269 265 262 264 269 274 281 291 298 301 298 296 299 301 302 300 298 299 300 301 300 298
254 253 255 260 263 262 264 268 268 264 263 261 259 259 259 260 261 264 265 264 264 264 264 264 269 269 266 269 269 264 262 267 272 278 285 290 295 297 296 300 300 301 299 297 294 295 296 298 299
251 254 255 256 261 263 267 270 271 265 264 264 260 257 256 257 258 260 262 265 264 262 262 261 265 270 269 274 273 269 264 267 271 274 281 284 289 294 297 301 301 303 301 297 297 296 295 295 296
253 254 256 258 259 262 266 267 267 267 266 263 261 258 256 257 258 260 262 263 262 263 263 264 264 267 270 271 268 268 266 266 269 272 276 281 285 290 294 296 297 299 298 298 298 297 295 296 297
252 254 256 258 260 261 262 264 266 266 265 262 261 258 257 258 259 259 260 261 260 262 261 262 263 265 268 269 267 270 272 268 267 270 273 277 282 286 288 291 294 296 296 295 297 298 295 295 295
Height
5896 5896 5896 5897 5898 5898 5897 5896 5895 5894 5893 5892 5891 5890 5889 5889 5889 5891 5888 5886 5887 5886 5885 5886 5886 5887 5887 5887 5887 5888 5888 5888 5889 5889 5890 5891 5892 5892 5893 5894 5895 5896 5897 5898 5899 5900 5900 5901 5902
5898 5898 5899 5900 5900 5901 5899 5898 5897 5896 5895 5894 5892 5892 5891 5890 5890 5890 5889 5888 5888 5888 5887 5888 5888 5888 5888 5888 5888 5888 5889 5890 5890 5891 5891 5892 5893 5894 5895 5895 5896 5897 5898 5899 5900 5901 5902 5902 5903
5900 5901 5902 5902 5902 5902 5901 5900 5899 5898 5896 5895 5895 5894 5893 5892 5892 5891 5891 5890 5890 5889 5889 5889 5889 5889 5889 5889 5889 5890 5890 5891 5891 5892 5893 5893 5894 5895 5895 5896 5897 5898 5899 5900 5901 5902 5903 5903 5904
5903 5904 5905 5905 5904 5904 5903 5902 5900 5899 5899 5897 5897 5896 5895 5894 5893 5893 5892 5892 5891 5891 5891 5890 5890 5890 5890 5890 5891 5891 5891 5892 5892 5893 5894 5894 5895 5896 5897 5897 5898 5899 5900 5901 5902 5903 5904 5904 5905
5906 5906 5907 5907 5906 5906 5905 5903 5902 5902 5901 5900 5899 5898 5897 5896 5895 5895 5894 5894 5893 5893 5892 5892 5892 5892 5892 5892 5892 5892 5892 5893 5893 5894 5895 5895 5896 5897 5898 5898 5899 5900 5901 5902 5903 5903 5904 5905 5905
5909 5909 5911 5910 5909 5908 5907 5905 5904 5904 5903 5902 5901 5900 5899 5898 5897 5897 5896 5895 5894 5894 5894 5894 5894 5894 5893 5893 5893 5893 5894 5894 5894 5895 5895 5896 5897 5897 5898 5899 5900 5901 5902 5903 5903 5904 5905 5906 5906
5911 5912 5912 5912 5911 5910 5909 5908 5906 5906 5905 5904 5903 5902 5901 5900 5899 5899 5898 5897 5896 5896 5896 5895 5895 5895 5895 5894 5894 5895 5895 5895 5895 5896 5896 5897 5897 5898 5899 5900 5901 5902 5902 5903 5904 5905 5905 5906 5906
5913 5914 5914 5914 5913 5912 5911 5910 5909 5908 5907 5906 5905 5904 5903 5902 5901 5900 5900 5899 5898 5898 5897 5897 5897 5896 5896 5896 5896 5896 5896 5896 5896 5896 5897 5897 5897 5898 5899 5901 5902 5902 5903 5904 5904 5905 5906 5907 5907
5915 5918 5917 5916 5915 5914 5913 5912 5911 5910 5909 5908 5907 5906 5905 5904 5903 5902 5902 5901 5901 5900 5899 5899 5898 5898 5897 5897 5897 5897 5897 5897 5897 5897 5897 5897 5896 5897 5899 5901 5902 5903 5904 5904 5905 5906 5906 5907 5907
5917 5919 5918 5917 5917 5916 5915 5914 5913 5912 5911 5910 5909 5908 5907 5906 5905 5904 5904 5903 5902 5902 5901 5900 5900 5899 5898 5898 5898 5898 5898 5898 5898 5898 5897 5896 5895 5896 5898 5900 5902 5903 5904 5904 5905 5906 5906 5907 5908
5919 5919 5919 5918 5918 5917 5916 5916 5915 5914 5913 5912 5911 5910 5908 5908 5907 5906 5906 5905 5904 5904 5903 5902 5901 5901 5900 5899 5899 5899 5899 5898 5898 5898 5897 5897 5896 5897 5899 5901 5902 5903 5904 5904 5904 5905 5907 5907 5908
5921 5921 5920 5920 5920 5919 5918 5917 5917 5916 5915 5914 5913 5911 5910 5910 5909 5908 5907 5907 5906 5905 5905 5904 5903 5902 5902 5901 5900 5900 5899 5899 5899 5898 5898 5898 5898 5899 5900 5901 5902 5903 5903 5904 5905 5906 5907 5907 5908
5922 5922 5922 5921 5921 5921 5920 5919 5918 5917 5917 5916 5914 5913 5912 5911 5911 5910 5909 5908 5907 5907 5906 5905 5904 5903 5903 5902 5901 5901 5900 5900 5899 5899 5899 5899 5900 5900 5901 5902 5903 5903 5903 5904 5905 5906 5907 5907 5907
5923 5923 5923 5923 5923 5922 5922 5921 5920 5919 5918 5917 5916 5915 5914 5913 5912 5911 5910 5910 5909 5908 5907 5906 5906 5905 5904 5903 5902 5902 5901 5900 5900 5899 5900 5900 5901 5901 5902 5903 5903 5904 5904 5905 5906 5906 5907 5907 5907
5924 5925 5925 5924 5924 5923 5923 5923 5922 5920 5919 5919 5918 5917 5916 5915 5914 5913 5912 5911 5910 5910 5909 5908 5907 5906 5905 5904 5903 5902 5901 5901 5900 5900 5900 5901 5902 5902 5903 5903 5903 5904 5904 5905 5905 5906 5906 5906 5906
5924 5925 5926 5925 5924 5924 5925 5925 5923 5922 5921 5920 5919 5918 5917 5916 5915 5915 5914 5913 5912 5911 5910 5909 5908 5907 5906 5905 5904 5903 5902 5901 5901 5901 5901 5902 5902 5902 5903 5903 5904 5904 5904 5904 5905 5905 5905 5905 5905
5925 5926 5927 5926 5925 5924 5925 5925 5924 5922 5922 5921 5920 5919 5918 5917 5917 5916 5915 5914 5913 5912 5911 5910 5909 5908 5907 5906 5905 5904 5903 5903 5902 5902 5902 5902 5903 5903 5903 5903 5904 5904 5904 5904 5904 5904 5904 5904 5904
5925 5925 5925 5925 5924 5924 5924 5924 5924 5922 5922 5921 5920 5920 5919 5918 5917 5916 5915 5914 5914 5913 5912 5911 5910 5909 5908 5907 5906 5905 5905 5904 5903 5903 5903 5903 5903 5903 5903 5903 5903 5903 5903 5903 5903 5903 5903 5903 5903
5921 5922 5923 5923 5923 5923 5923 5923 5923 5922 5921 5921 5920 5920 5919 5918 5917 5916 5915 5914 5914 5913 5912 5911 5910 5909 5908 5908 5907 5906 5905 5905 5904 5904 5903 5903 5903 5903 5903 5903 5903 5902 5902 5902 5902 5902 5902 5902 5901
5919 5920 5921 5921 5921 5921 5921 5922 5922 5921 5920 5920 5920 5919 5919 5918 5917 5916 5915 5914 5914 5913 5912 5911 5910 5909 5908 5908 5907 5906 5906 5905 5905 5904 5904 5903 5903 5903 5903 5903 5902 5902 5902 5901 5901 5901 5900 5900 5899
5916 5917 5918 5919 5919 5919 5920 5920 5920 5920 5919 5919 5918 5918 5918 5917 5916 5915 5914 5914 5913 5912 5911 5910 5910 5909 5908 5907 5906 5906 5906 5905 5905 5905 5904 5903 5903 5902 5902 5902 5901 5901 5900 5900 5900 5899 5898 5898 5897
5913 5914 5914 5915 5916 5918 5918 5919 5919 5918 5917 5917 5917 5916 5916 5915 5915 5914 5913 5912 5912 5911 5910 5910 5909 5908 5908 5907 5907 5906 5906 5905 5905 5905 5904 5903 5902 5902 5901 5901 5900 5900 5899 5899 5898 5897 5897 5896 5896
5909 5910 5911 5912 5912 5914 5915 5915 5917 5915 5915 5915 5914 5914 5913 5913 5912 5912 5911 5911 5910 5910 5909 5908 5908 5908 5907 5907 5906 5906 5905 5905 5904 5904 5903 5902 5902 5901 5901 5900 5899 5898 5898 5897 5896 5896 5895 5894 5893
5904 5906 5907 5908 5909 5910 5911 5912 5913 5913 5912 5912 5912 5911 5911 5910 5910 5909 5909 5908 5908 5908 5907 5907 5907 5906 5906 5906 5905 5905 5904 5904 5903 5903 5902 5901 5901 5900 5899 5899 5898 5897 5896 5895 5895 5894 5893 5892 5891
5900 5903 5904 5905 5906 5907 5907 5907 5909 5908 5908 5908 5908 5908 5907 5907 5907 5906 5906 5906 5906 5905 5905 5905 5905 5905 5904 5904 5904 5903 5903 5902 5902 5901 5901 5900 5899 5899 5898 5897 5896 5895 5894 5894 5893 5892 5891 5890 5889
5896 5898 5900 5902 5903 5904 5901 5901 5904 5903 5903 5903 5903 5903 5903 5903 5903 5903 5903 5903 5903 5902 5902 5902 5902 5902 5902 5902 5902 5901 5901 5901 5900 5900 5899 5898 5898 5897 5896 5895 5894 5893 5892 5891 5890 5889 5888 5887 5886
5890 5891 5894 5895 5895 5896 5897 5896 5897 5897 5898 5898 5898 5898 5899 5899 5899 5899 5899 5899 5899 5899 5899 5899 5899 5899 5898 5899 5899 5899 5898 5898 5898 5897 5897 5896 5895 5894 5893 5892 5891 5890 5889 5888 5887 5886 5885 5884 5883
5884 5885 5887 5888 5889 5890 5891 5891 5892 5892 5892 5893 5893 5893 5893 5894 5894 5895 5895 5895 5895 5895 5896 5896 5896 5895 5895 5895 5895 5895 5895 5895 5895 5895 5894 5893 5893 5892 5890 5889 5888 5887 5886 5885 5884 5883 5881 5880 5879
5878 5879 5880 5882 5882 5884 5886 5889 5886 5885 5886 5886 5887 5887 5887 5888 5889 5889 5890 5890 5890 5891 5891 5891 5891 5891 5891 5892 5891 5891 5891 5891 5891 5891 5890 5890 5889 5888 5887 5886 5885 5884 5882 5881 5880 5879 5877 5876 5874
5871 5872 5874 5875 5875 5876 5878 5883 5879 5878 5879 5880 5880 5881 5881 5882 5883 5884 5884 5885 5885 5885 5886 5886 5887 5887 5887 5887 5887 5887 5887 5887 5887 5887 5886 5886 5885 5884 5883 5882 5881 5879 5878 5877 5875 5874 5872 5871 5869